Find Starlink 35457

NORAD ID: 66433 Int'l Des: 2025-259 Owner: SPXS Country: US Constellation: starlink operational
LEOCIRCULAR

实时位置

正在加载3D地球...

关于 Starlink 35457

正在加载描述...

即将过境

Passes for default location (London). Set your location on the main map for personalized predictions.

高度历史

Loading altitude history...

两行轨道根数

1 66433U 25259M 26107.26232526 .00014467 00000-0 53409-3 0 9995
2 66433 43.0032 56.2330 0001576 267.6989 92.3682 15.27588442 25396
Epoch: Apr 17, 2026 • Age: 10 hours

当前状态

高度 482.4 km
速度 7.63 km/s
星下点 4.12°N, 136.58°E
发射日期 Nov 11, 2025
运行时间 0.4 years
类型 internet

技术详情

分类 Payload
质量 575.00 kg
干质量 530.00 kg
总质量 575.00 kg
长度 0.30 m
直径 4.10 m
跨度 29.00 m
形状 Box + pan
制造商 SPXS
平台类型 Starlink V2MO
阶段状态 In Orbit
所有者/国家 SPXS/US

Most Searched